[[[{"header":{"parameterUnit":"kt","parameterCategory":2,"dx":1,"dy":1,"la1":30.253999710083008,"la2":30.299108505249023,"lo1":-89.0895004272461,"lo2":-89.04439544677734,"nx":28,"ny":28,"refTime":"2022-10-02T21:00:00:Z","depth":0,"parameterNumber":1,"parameterNumberName":"U-component_of_WINDS"},"data":[-4.0794,-4.0889,-4.0839,-4.0926,-4.0895,-4.0946,-4.0949,-4.0946,-4.0931,-4.0987,-4.1011,-4.097,-4.0936,-4.0953,-4.0977,-4.0958,-4.0975,-4.1047,-4.1014,-4.0735,-4.0694,-4.0654,-4.063,-4.1049,-4.105,-4.1312,-4.1314,-4.1316,-4.0599,-4.0569,-4.0598,-4.0593,-4.0619,-4.0519,-4.0507,-4.0537,-4.0585,-4.0567,-4.0586,-4.0631,-4.0661,-4.06,-4.0621,-4.0667,-4.0623,-4.0677,-4.0676,-4.0673,-4.0372,-4.0346,-4.0712,-4.0712,-4.0712,-4.0712,-4.0712,-4.0712,-4.0231,-4.029,-4.0256,-4.0287,-4.027,-4.0267,-4.0315,-4.0261,-4.029,-4.0303,-4.0235,-4.029,-4.0262,-4.026,-4.0246,-4.0289,-4.022,-4.0264,-4.0276,-4.0291,-4.0315,-3.9955,-4.0288,-4.0287,-4.0286,-4.0285,-4.0284,0,-3.9947,-3.99,-3.9924,-3.9934,-3.9953,-3.9956,-3.9949,-3.9976,-3.9858,-3.9887,-3.9925,-3.9938,-3.9965,-3.9996,-4.0002,-3.9978,-3.9882,-3.9863,-3.9894,-3.9933,-3.9968,-3.9957,-3.9475,-3.9855,-3.9851,-3.9849,-3.9846,-3.9845,-3.9578,-3.965,-3.9588,-3.9612,-3.9595,-3.9635,-3.9648,-3.9538,-3.9558,-3.9533,-3.9591,-3.9618,-3.9635,-3.9705,-3.9643,-3.9663,-3.9618,-3.9769,-3.962,-3.9653,-3.9628,-3.9628,-3.9637,-3.9803,-3.9809,-3.9813,-3.9817,0,-3.9377,-3.929,-3.9385,-3.9315,-3.93,-3.9382,-3.9323,-3.9376,-3.9317,-3.9384,-3.9392,-3.9302,-3.9341,-3.9252,-3.9279,-3.9232,-3.9373,-3.9324,-3.9383,-3.9371,-3.9503,-3.9495,-3.9934,-3.9988,-3.9544,-3.9549,-3.9552,0,-3.9031,-3.913,-3.8995,-3.9055,-3.9161,-3.9046,-3.9155,-3.9115,-3.9086,-3.9137,-3.9008,-3.9059,-3.8937,-3.8976,-3.8907,-3.9004,-3.9007,-3.898,-3.8962,-3.8996,-3.9,-3.901,-3.8993,-3.8909,-3.8906,-3.8905,-3.8903,0,-3.873,-3.877,-3.8865,-3.8861,-3.8796,-3.8844,-3.8819,-3.8785,-3.8799,-3.8802,-3.8811,-3.8822,-3.8831,-3.8843,-3.8756,-3.8658,-3.887,-3.8718,-3.8843,-3.8846,-3.89,-3.8899,-3.9304,-3.89,-3.89,-3.8899,-3.8898,0,-3.8439,-3.8442,-3.8591,-3.8535,-3.855,-3.8612,-3.8616,-3.8647,-3.8621,-3.8581,-3.8582,-3.8487,-3.856,-3.8417,-3.8518,-3.8417,-3.8434,-3.8411,-3.8419,-3.8426,-3.827,-3.8519,-3.8907,-3.8948,-3.8426,-3.8422,-3.8418,0,-3.8122,-3.8247,-3.8149,-3.8292,-3.8338,-3.8192,-3.8258,-3.8237,-3.8188,-3.8221,-3.8166,-3.8205,-3.8079,-3.8079,-3.8139,-3.8087,-3.8218,-3.8065,-3.8123,-3.8126,-3.8141,-3.8495,-3.8579,-3.883,-3.8366,-3.8371,-3.8375,0,-3.7866,-3.7783,-3.7816,-3.7807,-3.7758,-3.7795,-3.787,-3.7881,-3.791,-3.7897,-3.7961,-3.8009,-3.7918,-3.7918,-3.7842,-3.791,-3.8126,-3.7803,-3.7801,-3.787,-3.833,-3.841,-3.8452,-3.806,-3.8066,-3.8071,-3.8334,0,-3.7458,-3.7506,-3.7587,-3.7569,-3.7582,-3.7664,-3.7568,-3.7594,-3.7519,-3.7465,-3.7553,-3.7512,-3.7525,-3.7546,-3.7473,-3.7655,-3.7612,-3.7513,-3.7372,-3.7603,-3.7688,-3.7722,-3.7254,-3.7249,-3.7245,-3.7242,0,0,-3.718,-3.7247,-3.7136,-3.7203,-3.7208,-3.7054,-3.7152,-3.7138,-3.7115,-3.7123,-3.7042,-3.7106,-3.7076,-3.7195,-3.7259,-3.7261,-3.7288,-3.721,-3.7492,-3.7521,-3.7547,-3.7639,-3.7676,-3.7234,-3.7233,-3.7232,-3.723,0,-3.7011,-3.6979,-3.7075,-3.7055,-3.7022,-3.6959,-3.6982,-3.6923,-3.6893,-3.6976,-3.685,-3.6891,-3.6943,-3.6931,-3.6931,-3.7191,-3.7097,-3.7201,-3.7376,-3.7455,-3.7489,-3.7518,-3.7617,-3.7653,-3.722,-3.7221,-3.7221,0,-3.6746,-3.6701,-3.6735,-3.6735,-3.6712,-3.6761,-3.6587,-3.6645,-3.6682,-3.6512,-3.6597,-3.6562,-3.6534,-3.6656,-3.6706,-3.6635,-3.693,-3.6817,-3.684,-3.6845,-3.6917,-3.6958,-3.6994,-3.6519,-3.6517,-3.6515,0,0,-3.6615,-3.6657,-3.6574,-3.6691,-3.6685,-3.6593,-3.6608,-3.6534,-3.6511,-3.6503,-3.6455,-3.6438,-3.6468,-3.649,-3.6512,-3.6658,-3.6646,-3.6735,-3.6768,-3.6795,-3.6816,-3.6895,-3.6935,-3.6508,-3.6508,-3.6507,0,0,-3.6552,-3.646,-3.6387,-3.651,-3.6492,-3.6419,-3.6495,-3.6405,-3.6415,-3.6395,-3.6274,-3.6264,-3.6375,-3.6345,-3.6253,-3.6461,-3.6322,-3.6342,-3.6478,-3.6518,-3.6551,-3.6558,-3.6072,0,0,0,0,0,-3.6331,-3.6471,-3.6406,-3.6412,-3.641,-3.6455,-3.6454,-3.6357,-3.6261,-3.6324,-3.627,-3.6165,-3.6271,-3.6187,-3.6195,-3.6301,-3.6408,-3.6426,-3.6443,-3.6651,-3.6694,-3.6731,0,0,0,0,0,0,-3.6332,-3.634,-3.6402,-3.6337,-3.6335,-3.6448,-3.6266,-3.6243,-3.6252,-3.6231,-3.6179,-3.6163,-3.6082,-3.6176,-3.6185,-3.6287,-3.6069,-3.6415,-3.643,-3.6444,-3.6666,-3.6701,-3.6731,0,0,0,0,0,-3.6333,-3.6339,-3.6361,-3.6334,-3.6333,-3.6237,-3.626,-3.6239,-3.6245,-3.616,-3.6141,-3.617,-3.6088,-3.6089,-3.6181,-3.6286,-3.6062,-3.6066,-3.6425,-3.6437,-3.6447,-3.6683,0,0,0,0,0,0,-3.6333,-3.6321,-3.6359,-3.6355,-3.6273,-3.6228,-3.6218,-3.6237,-3.6171,-3.6154,-3.6146,-3.613,-3.6093,-3.6093,-3.6095,-3.6291,-3.6056,-3.606,-3.6062,-3.6434,-3.6443,-3.6451,0,0,0,0,0,0,-3.6317,-3.6319,-3.6357,-3.6286,-3.6272,-3.6222,-3.6212,-3.6275,-3.6173,-3.616,-3.6144,-3.614,-3.6091,-3.6097,-3.6097,-3.62,-3.6052,-3.6055,-3.6058,-3.606,-3.6441,-3.6449,0,0,0,0,0,0,-3.6316,-3.6317,-3.6286,-3.6276,-3.6264,-3.6213,-3.6275,-3.628,-3.611,-3.6165,-3.6092,-3.6084,-3.6099,-3.6097,-3.61,-3.6204,-3.6201,-3.6052,-3.6054,-3.6056,-3.6057,0,0,0,0,0,0,0,-3.6315,-3.6328,-3.6382,-3.6268,-3.6257,-3.6319,-3.6318,-3.6317,-3.6108,-3.6101,-3.6094,-3.6088,-3.603,-3.6034,-3.6039,-3.6206,0,0,-3.6051,-3.6053,0,0,0,0,0,0,0,0,-3.6325,-3.6327,-3.6382,-3.6381,-3.638,-3.6319,-3.6318,-3.6317,-3.6107,-3.6102,-3.6096,-3.609,-3.6031,-3.6035,-3.6038,0,0,0,0,0,0,0,0,0,0,0,0,0,0,0,-3.6382,-3.6381,0,-3.6319,-3.6318,-3.6317,-3.6106,-3.6102,-3.6097,-3.6093,-3.6032,-3.6035,-3.6038,0,0,0,0,0,0,0,0,0,0,0,0,0,0,0,0,0,0,0,0,0,0,0,0,0,0,0,0,0,0,0,0,0,0,0,0,0,0,0,0,0,0,0,0,0,0,0,0,0,0,0,0,0,0,0,0,0,0,0,0,0,0,0,0,0,0,0,0,0]}],[{"header":{"parameterUnit":"kt","parameterCategory":2,"dx":1,"dy":1,"la1":30.253999710083008,"la2":30.299108505249023,"lo1":-89.0895004272461,"lo2":-89.04439544677734,"nx":28,"ny":28,"refTime":"2022-10-02T21:00:00:Z","depth":0,"parameterNumber":2,"parameterNumberName":"V-component_of_WINDS"},"data":[-1.0279,-1.0327,-1.038,-1.046,-1.0521,-1.0586,-1.0626,-1.0684,-1.0744,-1.0827,-1.0885,-1.0944,-1.1026,-1.1108,-1.1174,-1.12,-1.1226,-1.1203,-1.1238,-1.1288,-1.1299,-1.1309,-1.1303,-1.1206,-1.1206,-1.1181,-1.1181,-1.118,-1.031,-1.0371,-1.0428,-1.0521,-1.0571,-1.0625,-1.0703,-1.0742,-1.0798,-1.0871,-1.0931,-1.1009,-1.1078,-1.117,-1.1246,-1.1271,-1.1303,-1.1288,-1.129,-1.1303,-1.1357,-1.1349,-1.1261,-1.1261,-1.1261,-1.1261,-1.1261,-1.1261,-1.0383,-1.0409,-1.0497,-1.0561,-1.0622,-1.0683,-1.0718,-1.0791,-1.0848,-1.0934,-1.0987,-1.1052,-1.1137,-1.1256,-1.1309,-1.1362,-1.1389,-1.1391,-1.1393,-1.1394,-1.1387,-1.1424,-1.1377,-1.1377,-1.1378,-1.1378,-1.1378,0,-1.0455,-1.0499,-1.0558,-1.0633,-1.0682,-1.0745,-1.0813,-1.0836,-1.0948,-1.0991,-1.1058,-1.1106,-1.12,-1.1271,-1.1354,-1.1411,-1.1476,-1.1486,-1.1489,-1.1468,-1.1437,-1.1459,-1.1549,-1.1489,-1.149,-1.1491,-1.1492,-1.1492,-1.0538,-1.056,-1.0679,-1.0713,-1.0764,-1.0817,-1.086,-1.0958,-1.1,-1.1098,-1.1116,-1.1187,-1.125,-1.1348,-1.1436,-1.1507,-1.1541,-1.1512,-1.1552,-1.1529,-1.1547,-1.1547,-1.1551,-1.1505,-1.1503,-1.1502,-1.1501,0,-1.058,-1.067,-1.0723,-1.0839,-1.0869,-1.0888,-1.0988,-1.1018,-1.1086,-1.1138,-1.1155,-1.1264,-1.1328,-1.1421,-1.1513,-1.156,-1.1597,-1.1624,-1.1569,-1.1581,-1.1569,-1.1571,-1.1505,-1.1503,-1.1598,-1.1597,-1.1596,0,-1.0689,-1.0714,-1.0848,-1.0874,-1.0906,-1.1005,-1.1035,-1.1098,-1.1173,-1.1215,-1.1301,-1.1338,-1.1452,-1.1502,-1.1572,-1.1617,-1.1633,-1.1674,-1.1694,-1.167,-1.1666,-1.1699,-1.1706,-1.173,-1.173,-1.173,-1.173,0,-1.075,-1.085,-1.0893,-1.0931,-1.1058,-1.1076,-1.1129,-1.1215,-1.1257,-1.1326,-1.1355,-1.1427,-1.1468,-1.1522,-1.1612,-1.1636,-1.1668,-1.172,-1.1711,-1.1709,-1.1718,-1.1718,-1.163,-1.1731,-1.1731,-1.1731,-1.1731,0,-1.0855,-1.0921,-1.0967,-1.1077,-1.11,-1.1126,-1.1206,-1.1251,-1.1335,-1.1381,-1.1436,-1.1508,-1.1552,-1.1597,-1.1662,-1.1669,-1.1704,-1.1746,-1.1747,-1.1763,-1.1813,-1.1758,-1.166,-1.1656,-1.1769,-1.1769,-1.1769,0,-1.0903,-1.0973,-1.106,-1.1102,-1.1148,-1.1246,-1.1278,-1.135,-1.1414,-1.1464,-1.1535,-1.1591,-1.1644,-1.1675,-1.1693,-1.1771,-1.1761,-1.1774,-1.185,-1.1851,-1.183,-1.174,-1.1705,-1.1669,-1.1775,-1.1774,-1.1774,0,-1.0953,-1.1108,-1.1109,-1.1159,-1.127,-1.1309,-1.1344,-1.1421,-1.145,-1.152,-1.1556,-1.1633,-1.1678,-1.1728,-1.1794,-1.1809,-1.1771,-1.1856,-1.186,-1.1842,-1.1783,-1.1751,-1.1744,-1.1812,-1.1812,-1.1811,-1.1778,0,-1.1099,-1.1146,-1.1151,-1.1255,-1.1299,-1.1329,-1.1431,-1.1464,-1.1524,-1.1593,-1.1644,-1.1728,-1.1808,-1.1823,-1.1882,-1.1884,-1.19,-1.1947,-1.2004,-1.1941,-1.1933,-1.1929,-1.2007,-1.2009,-1.2011,-1.2013,0,0,-1.1126,-1.1196,-1.1292,-1.133,-1.1375,-1.1478,-1.1502,-1.1556,-1.1664,-1.1694,-1.1724,-1.1847,-1.1915,-1.1967,-1.1955,-1.1984,-1.1996,-1.2014,-1.1969,-1.1963,-1.1959,-1.1948,-1.1942,-1.2016,-1.2017,-1.2017,-1.2018,0,-1.1203,-1.1267,-1.1289,-1.135,-1.1444,-1.1516,-1.1521,-1.1633,-1.1679,-1.1728,-1.1815,-1.1857,-1.1951,-1.2014,-1.2058,-1.2008,-1.2074,-1.2024,-1.1966,-1.1984,-1.1976,-1.1969,-1.1957,-1.195,-1.2022,-1.2022,-1.2022,0,-1.1275,-1.1357,-1.1378,-1.1482,-1.1545,-1.1589,-1.1672,-1.1715,-1.175,-1.1863,-1.1911,-1.1971,-1.2062,-1.2095,-1.2114,-1.2144,-1.214,-1.2157,-1.2148,-1.2155,-1.2177,-1.2167,-1.2159,-1.2273,-1.2274,-1.2274,0,0,-1.1328,-1.1371,-1.1492,-1.1506,-1.154,-1.1647,-1.1681,-1.1746,-1.1825,-1.1856,-1.1937,-1.2011,-1.2068,-1.2103,-1.2162,-1.2183,-1.2212,-1.2184,-1.2172,-1.2162,-1.2163,-1.2182,-1.2173,-1.2276,-1.2276,-1.2276,0,0,-1.1354,-1.1495,-1.1542,-1.1571,-1.1643,-1.1764,-1.177,-1.1831,-1.1894,-1.1903,-1.2015,-1.2039,-1.2072,-1.2129,-1.214,-1.2185,-1.2237,-1.2237,-1.2148,-1.2134,-1.2123,-1.2111,-1.224,0,0,0,0,0,-1.1487,-1.1478,-1.1519,-1.1539,-1.1672,-1.174,-1.1758,-1.1851,-1.1887,-1.1889,-1.1966,-1.2033,-1.2159,-1.2171,-1.219,-1.2178,-1.2298,-1.2294,-1.2291,-1.2181,-1.2166,-1.2153,0,0,0,0,0,0,-1.1496,-1.152,-1.152,-1.1639,-1.1669,-1.1742,-1.1824,-1.1849,-1.1889,-1.1901,-1.2016,-1.2037,-1.2117,-1.2168,-1.2183,-1.2171,-1.2235,-1.2297,-1.2293,-1.229,-1.2176,-1.2163,-1.2153,0,0,0,0,0,-1.1503,-1.1523,-1.171,-1.164,-1.1666,-1.1787,-1.1825,-1.1847,-1.188,-1.2,-1.2023,-1.1946,-1.2114,-1.2134,-1.2178,-1.2161,-1.2225,-1.2231,-1.2295,-1.2292,-1.229,-1.217,0,0,0,0,0,0,-1.1509,-1.1544,-1.1718,-1.173,-1.1651,-1.1785,-1.1809,-1.1844,-1.1978,-1.2,-1.1935,-1.1943,-1.2112,-1.2128,-1.2142,-1.2153,-1.2217,-1.2222,-1.2226,-1.2293,-1.229,-1.2289,0,0,0,0,0,0,-1.1534,-1.1552,-1.1724,-1.1733,-1.1746,-1.1782,-1.1804,-1.1854,-1.1978,-1.1906,-1.1917,-1.1937,-1.2091,-1.2123,-1.2135,-1.221,-1.2211,-1.2216,-1.222,-1.2222,-1.2291,-1.2289,0,0,0,0,0,0,-1.1543,-1.156,-1.173,-1.174,-1.1752,-1.189,-1.1829,-1.1959,-1.1984,-1.1898,-1.1989,-1.1991,-1.2084,-1.2098,-1.2129,-1.2199,-1.2207,-1.2211,-1.2214,-1.2217,-1.2219,0,0,0,0,0,0,0,-1.1551,-1.142,-1.1649,-1.1747,-1.1758,-1.1837,-1.184,-1.1843,-1.1985,-1.1987,-1.1989,-1.199,-1.2181,-1.2186,-1.2192,-1.2189,0,0,-1.221,-1.2213,0,0,0,0,0,0,0,0,-1.1415,-1.1418,-1.1649,-1.1652,-1.1654,-1.1837,-1.184,-1.1843,-1.1985,-1.1987,-1.1988,-1.199,-1.2182,-1.2187,-1.2192,0,0,0,0,0,0,0,0,0,0,0,0,0,0,0,-1.1649,-1.1651,0,-1.1838,-1.184,-1.1842,-1.1985,-1.1986,-1.1988,-1.1989,-1.2183,-1.2187,-1.2191,0,0,0,0,0,0,0,0,0,0,0,0,0,0,0,0,0,0,0,0,0,0,0,0,0,0,0,0,0,0,0,0,0,0,0,0,0,0,0,0,0,0,0,0,0,0,0,0,0,0,0,0,0,0,0,0,0,0,0,0,0,0,0,0,0,0,0,0,0]}]]]